Du Bois, PA

7:19 AM EDT on September 24, 2017 (GMT -0400)
Du Bois-Jefferson County

Weather History for KDUJ - February, 2012

Change the Weather History Date:

Friday, February 17, 2012

  Actual Average Record
Temperature  
Mean Temperature 34 °F 27 °F  
Max Temperature 41 °F 35 °F 58 °F (2006)
Min Temperature 26 °F 19 °F -11 °F (1973)
Degree Days  
Heating Degree Days 31 38  
Month to date heating degree days 601 674  
Since 1 July heating degree days 3623 4618  
Cooling Degree Days 0 0  
Month to date cooling degree days 0 0  
Year to date cooling degree days 0 0  
Moisture  
Dew Point 26 °F    
Average Humidity 73    
Maximum Humidity 96    
Minimum Humidity 50    
Precipitation  
Precipitation T in 0.08 in 0.39 in (1971)
Month to date precipitation 0.57 1.36  
Sea Level Pressure  
Sea Level Pressure 30.05 in    
Wind  
Wind Speed 10 mph (West)    
Max Wind Speed 26 mph    
Max Gust Speed 33 mph    
Visibility 8 miles    
Events      
T = Trace of Precipitation, MM = Missing Value Source: NWS Daily Summary

Daily Weather History Graph

Daily Weather History Graph

Search for Another Location

Airport or City:

Trip Planner

Search our weather history database for the weather conditions in past years. The results will help you decide how hot, cold, wet, or windy it might be!

Date:

Astronomy

Feb. 17, 2012 Rise Set
Actual Time 7:08 AM EST 5:51 PM EST
Civil Twilight 6:40 AM EST 6:19 PM EST
Nautical Twilight 6:07 AM EST 6:52 PM EST
Astronomical Twilight 5:35 AM EST 7:24 PM EST
Moon 3:59 AM EST (2/17) 1:41 PM EST (2/17)
Length of Visible Light 11h 39m
Length of Day
10h 43m
Waning Crescent, 19% of the Moon is Illuminated
Feb 17
Waning Crescent
Feb 21
New
Feb 29
First Quarter
Mar 8
Full
Mar 14
Last Quarter

Hourly Weather History & Observations

Time (EST) Temp. Windchill Dew Point Humidity Pressure Visibility Wind Dir Wind Speed Gust Speed Precip Events Conditions
12:06 AM 35.6 °F 26.6 °F 33.8 °F 93% 29.97 in 10.0 mi West 13.8 mph 19.6 mph N/A   Overcast
12:56 AM 35.1 °F 26.9 °F 33.1 °F 92% 30.03 in 10.0 mi West 11.5 mph - N/A   Overcast
1:56 AM 35.1 °F 27.4 °F 33.1 °F 92% 30.03 in 10.0 mi West 10.4 mph - N/A   Overcast
2:03 AM 35.6 °F 28.6 °F 33.8 °F 93% 29.98 in 10.0 mi WNW 9.2 mph - N/A   Overcast
2:56 AM 34.0 °F 26.0 °F 32.0 °F 92% 30.03 in 8.0 mi West 10.4 mph - N/A   Overcast
3:14 AM 33.8 °F 27.0 °F 32.0 °F 93% 29.98 in 8.0 mi West 8.1 mph - N/A   Overcast
3:20 AM 33.8 °F 24.8 °F 32.0 °F 93% 29.99 in 8.0 mi West 12.7 mph - N/A   Overcast
3:56 AM 33.1 °F 25.5 °F 30.0 °F 89% 30.04 in 9.0 mi West 9.2 mph - N/A   Mostly Cloudy
4:56 AM 30.2 °F 22.6 °F 28.4 °F 93% 30.02 in 8.0 mi West 8.1 mph - N/A   Partly Cloudy
5:56 AM 30.0 °F 23.2 °F 27.0 °F 88% 30.08 in 8.0 mi West 6.9 mph - N/A   Clear
6:56 AM 28.0 °F 21.7 °F 26.1 °F 92% 30.09 in 6.0 mi West 5.8 mph - N/A   Clear
7:56 AM 28.0 °F 20.8 °F 27.0 °F 96% 30.09 in 2.5 mi WSW 6.9 mph - N/A   Clear
8:14 AM 28.4 °F 22.2 °F 26.6 °F 93% 30.05 in 2.5 mi WSW 5.8 mph - N/A   Scattered Clouds
8:33 AM 28.4 °F 21.2 °F 28.4 °F 100% 30.05 in 2.5 mi WSW 6.9 mph - N/A   Mostly Cloudy
8:45 AM 30.2 °F 22.6 °F 28.4 °F 93% 30.05 in 3.0 mi WSW 8.1 mph - N/A   Mostly Cloudy
8:56 AM 30.0 °F 21.7 °F 28.0 °F 92% 30.10 in 4.0 mi West 9.2 mph - N/A   Scattered Clouds
9:56 AM 33.1 °F 24.4 °F 27.0 °F 78% 30.09 in 10.0 mi West 11.5 mph - N/A   Clear
10:56 AM 35.1 °F 24.8 °F 25.0 °F 67% 30.09 in 10.0 mi WSW 17.3 mph - N/A   Clear
11:56 AM 37.0 °F 28.5 °F 24.1 °F 59% 30.08 in 10.0 mi West 13.8 mph - N/A   Mostly Cloudy
12:56 PM 39.0 °F 30.6 °F 23.0 °F 53% 30.05 in 10.0 mi West 15.0 mph 25.3 mph 0.00 in   Overcast
1:03 PM 39.2 °F 29.8 °F 23.0 °F 52% 30.00 in - West 18.4 mph 28.8 mph N/A   Mostly Cloudy
1:56 PM 37.4 °F 28.9 °F 24.8 °F 60% 30.00 in 10.0 mi West 13.8 mph 27.6 mph N/A   Mostly Cloudy
2:56 PM 39.0 °F 29.9 °F 23.0 °F 53% 30.04 in 10.0 mi West 17.3 mph 24.2 mph N/A   Mostly Cloudy
3:56 PM 39.0 °F 30.3 °F 24.1 °F 55% 30.04 in 10.0 mi WSW 16.1 mph 25.3 mph N/A   Mostly Cloudy
4:56 PM 37.9 °F 28.9 °F 21.9 °F 53% 30.05 in 10.0 mi West 16.1 mph 26.5 mph N/A   Mostly Cloudy
5:56 PM 35.1 °F 26.9 °F 21.9 °F 59% 30.08 in 10.0 mi WNW 11.5 mph 18.4 mph N/A   Clear
6:56 PM 32.0 °F 24.2 °F 21.0 °F 64% 30.11 in 10.0 mi WNW 9.2 mph - N/A   Clear
7:56 PM 30.0 °F 22.4 °F 21.0 °F 69% 30.12 in 10.0 mi NW 8.1 mph - N/A   Clear
8:56 PM 28.0 °F 20.8 °F 19.9 °F 72% 30.11 in 10.0 mi West 6.9 mph - N/A   Clear
9:56 PM 28.0 °F 21.7 °F 19.0 °F 69% 30.11 in 10.0 mi WNW 5.8 mph - N/A   Clear
10:56 PM 28.0 °F 24.2 °F 19.0 °F 69% 30.10 in 10.0 mi West 3.5 mph - N/A   Clear
11:56 PM 28.0 °F 24.2 °F 19.0 °F 69% 30.07 in 10.0 mi NNW 3.5 mph - N/A   Mostly Cloudy